Precipitable_Water
0.52 0.52 0.50 0.48 0.46 0.45 0.45 0.46 0.47 0.47 0.47 0.47 0.46 0.46 0.46 0.44 0.44 0.44 0.44 0.44 0.44 0.42 0.39 0.38 0.39 0.40 0.40 0.39 0.39 0.40 0.43 0.32 0.27 0.27 0.27 0.23 0.30 0.34 0.43 0.40 0.49 0.63 0.75 0.71 0.77 0.69 0.62 0.61 0.64 0.84 1.24 1.37 1.34 1.47 1.71 1.71 1.75 1.64 1.24 1.12 0.99 1.10 1.09 1.24 1.21 1.34 1.43 1.32 1.43 1.50 1.59 1.50 1.40 1.58 1.62 1.73 1.49 1.41 1.41 1.35 1.34 1.35 1.31 1.27 1.28 1.37 1.38 1.34
0.54 0.53 0.52 0.50 0.48 0.47 0.46 0.46 0.47 0.48 0.48 0.47 0.47 0.46 0.46 0.45 0.44 0.44 0.44 0.44 0.44 0.42 0.40 0.40 0.39 0.40 0.41 0.41 0.41 0.43 0.39 0.32 0.30 0.36 0.29 0.42 0.34 0.35 0.45 0.49 0.58 0.66 0.78 0.61 0.56 0.53 0.49 0.50 0.65 0.77 1.06 1.14 1.41 1.30 1.70 1.49 1.72 1.35 1.22 1.15 0.97 1.12 1.19 1.40 1.37 1.44 1.41 1.39 1.49 1.52 1.64 1.54 1.48 1.56 1.60 1.41 1.33 1.33 1.28 1.29 1.28 1.18 1.26 1.28 1.28 1.32 1.30 1.28
0.55 0.54 0.52 0.51 0.49 0.47 0.47 0.47 0.47 0.48 0.48 0.48 0.47 0.47 0.46 0.45 0.44 0.43 0.43 0.44 0.43 0.42 0.42 0.41 0.40 0.41 0.41 0.43 0.43 0.45 0.35 0.38 0.38 0.27 0.36 0.45 0.41 0.35 0.44 0.62 0.73 0.71 0.60 0.49 0.54 0.49 0.42 0.45 0.61 0.69 0.92 1.07 1.22 1.14 1.47 1.42 1.54 1.42 1.23 1.04 1.09 1.25 1.28 1.40 1.46 1.43 1.53 1.55 1.50 1.53 1.60 1.56 1.57 1.57 1.66 1.38 1.32 1.36 1.22 1.16 1.16 1.10 1.10 1.14 1.18 1.25 1.25 1.24
0.55 0.54 0.52 0.51 0.48 0.48 0.47 0.47 0.47 0.48 0.48 0.49 0.48 0.47 0.47 0.46 0.44 0.43 0.43 0.43 0.43 0.42 0.42 0.42 0.41 0.43 0.43 0.42 0.46 0.44 0.35 0.38 0.26 0.30 0.45 0.46 0.39 0.37 0.48 0.74 0.76 0.71 0.58 0.56 0.55 0.48 0.50 0.55 0.64 0.64 0.79 1.00 1.10 1.27 1.25 1.41 1.30 1.40 1.25 1.08 1.13 1.27 1.21 1.37 1.50 1.51 1.54 1.56 1.48 1.52 1.63 1.52 1.59 1.60 1.53 1.43 1.30 1.28 1.27 1.32 1.18 1.08 1.13 1.14 1.15 1.17 1.21 1.18
0.54 0.52 0.51 0.50 0.48 0.47 0.47 0.47 0.47 0.49 0.49 0.50 0.50 0.49 0.47 0.47 0.46 0.44 0.42 0.43 0.42 0.42 0.42 0.42 0.43 0.45 0.44 0.44 0.44 0.44 0.41 0.24 0.24 0.42 0.52 0.41 0.34 0.38 0.54 0.76 0.75 0.63 0.52 0.49 0.50 0.50 0.49 0.49 0.59 0.64 0.74 0.88 1.02 1.14 1.20 1.35 1.43 1.33 1.20 1.25 1.26 1.28 1.18 1.36 1.48 1.56 1.57 1.62 1.51 1.48 1.43 1.45 1.69 1.61 1.50 1.43 1.23 1.16 1.26 1.36 1.33 1.26 1.28 1.21 1.13 1.15 1.19 1.14
0.51 0.50 0.48 0.48 0.47 0.47 0.47 0.47 0.47 0.49 0.50 0.52 0.51 0.51 0.49 0.48 0.47 0.45 0.43 0.42 0.43 0.42 0.41 0.42 0.44 0.44 0.46 0.45 0.41 0.38 0.35 0.15 0.40 0.42 0.62 0.42 0.40 0.41 0.58 0.74 0.75 0.56 0.48 0.43 0.41 0.44 0.45 0.50 0.54 0.55 0.73 0.93 0.91 0.94 1.18 1.30 1.36 1.03 1.17 1.20 1.24 1.23 1.15 1.31 1.40 1.49 1.58 1.53 1.47 1.41 1.55 1.63 1.52 1.47 1.57 1.48 1.38 1.42 1.51 1.49 1.43 1.35 1.38 1.35 1.27 1.18 1.13 1.10
0.49 0.48 0.47 0.47 0.47 0.47 0.47 0.48 0.49 0.50 0.51 0.53 0.53 0.52 0.51 0.50 0.48 0.46 0.44 0.43 0.43 0.42 0.41 0.42 0.43 0.48 0.44 0.44 0.42 0.33 0.22 0.37 0.49 0.54 0.60 0.46 0.47 0.49 0.58 0.75 0.72 0.52 0.44 0.39 0.39 0.38 0.42 0.44 0.49 0.56 0.79 0.88 0.90 1.03 1.17 1.22 1.29 1.15 1.00 1.12 1.10 1.16 1.10 1.26 1.32 1.46 1.50 1.50 1.43 1.59 1.69 1.51 1.49 1.32 1.59 1.46 1.54 1.58 1.57 1.55 1.50 1.46 1.46 1.40 1.23 1.19 1.13 1.10
0.50 0.49 0.48 0.48 0.49 0.49 0.50 0.50 0.51 0.52 0.53 0.54 0.55 0.55 0.53 0.51 0.50 0.47 0.45 0.44 0.43 0.42 0.41 0.42 0.43 0.46 0.44 0.32 0.22 0.20 0.22 0.31 0.49 0.61 0.63 0.51 0.52 0.52 0.62 0.67 0.59 0.50 0.36 0.32 0.34 0.34 0.40 0.40 0.41 0.61 0.72 0.73 0.87 1.03 1.15 1.13 1.18 1.05 1.00 1.07 1.07 1.07 1.04 1.14 1.28 1.38 1.48 1.52 1.61 1.59 1.48 1.49 1.53 1.48 1.54 1.44 1.56 1.59 1.58 1.56 1.50 1.48 1.45 1.37 1.26 1.18 1.17 1.15
0.54 0.53 0.53 0.53 0.53 0.53 0.54 0.55 0.55 0.55 0.56 0.56 0.56 0.56 0.55 0.53 0.51 0.49 0.46 0.45 0.44 0.42 0.41 0.42 0.43 0.45 0.45 0.31 0.20 0.19 0.24 0.44 0.56 0.66 0.65 0.56 0.54 0.53 0.58 0.51 0.55 0.47 0.38 0.30 0.34 0.36 0.36 0.37 0.44 0.56 0.52 0.72 0.94 0.97 1.11 1.03 0.93 1.08 1.04 1.05 1.03 0.98 0.99 1.06 1.18 1.33 1.45 1.52 1.58 1.48 1.38 1.54 1.61 1.67 1.46 1.51 1.57 1.61 1.63 1.55 1.48 1.45 1.38 1.30 1.24 1.21 1.17 1.13
0.57 0.57 0.56 0.57 0.56 0.56 0.57 0.57 0.57 0.58 0.57 0.57 0.57 0.56 0.55 0.53 0.52 0.50 0.48 0.46 0.44 0.43 0.41 0.42 0.45 0.48 0.37 0.25 0.24 0.15 0.33 0.59 0.69 0.68 0.64 0.60 0.60 0.52 0.51 0.54 0.51 0.47 0.39 0.32 0.28 0.34 0.34 0.36 0.41 0.59 0.66 0.74 0.94 0.93 0.99 0.98 0.95 1.08 1.01 0.96 0.89 0.91 0.89 1.05 1.07 1.28 1.46 1.47 1.53 1.35 1.35 1.45 1.65 1.53 1.25 1.58 1.64 1.64 1.60 1.54 1.48 1.39 1.32 1.29 1.24 1.23 1.22 1.17
0.58 0.58 0.58 0.58 0.57 0.57 0.57 0.58 0.58 0.59 0.59 0.59 0.58 0.57 0.55 0.53 0.52 0.51 0.49 0.47 0.45 0.43 0.42 0.44 0.51 0.47 0.30 0.30 0.20 0.17 0.42 0.57 0.69 0.66 0.64 0.60 0.59 0.51 0.44 0.52 0.54 0.46 0.44 0.37 0.26 0.31 0.41 0.44 0.50 0.57 0.60 0.64 0.86 0.88 0.92 0.93 1.00 0.96 0.94 0.91 0.90 0.88 0.86 1.02 1.17 1.26 1.40 1.37 1.50 1.43 1.36 1.52 1.58 1.50 1.30 1.45 1.64 1.65 1.53 1.53 1.46 1.36 1.31 1.29 1.26 1.22 1.23 1.22
0.58 0.58 0.59 0.59 0.59 0.58 0.58 0.59 0.58 0.58 0.59 0.59 0.58 0.56 0.56 0.53 0.51 0.51 0.50 0.47 0.44 0.44 0.44 0.51 0.54 0.43 0.35 0.23 0.24 0.26 0.51 0.62 0.66 0.67 0.64 0.60 0.55 0.54 0.51 0.52 0.54 0.50 0.45 0.37 0.30 0.29 0.41 0.55 0.60 0.64 0.56 0.80 0.71 0.84 0.86 0.93 0.93 0.93 0.91 0.79 0.80 0.88 0.84 1.02 1.07 1.22 1.33 1.30 1.49 1.45 1.32 1.26 1.33 1.23 1.43 1.53 1.64 1.62 1.53 1.51 1.50 1.36 1.33 1.30 1.28 1.25 1.22 1.23
0.58 0.59 0.60 0.60 0.60 0.59 0.59 0.59 0.58 0.58 0.58 0.57 0.57 0.57 0.55 0.53 0.51 0.50 0.49 0.46 0.46 0.44 0.47 0.54 0.57 0.51 0.39 0.16 0.28 0.39 0.51 0.62 0.62 0.64 0.61 0.64 0.61 0.65 0.63 0.57 0.53 0.54 0.48 0.42 0.33 0.30 0.41 0.58 0.68 0.67 0.74 0.74 0.76 0.68 0.80 0.91 0.88 0.89 0.86 0.78 0.71 0.79 0.78 0.99 1.18 1.27 1.24 1.34 1.47 1.39 0.84 1.00 1.18 1.35 1.49 1.60 1.58 1.58 1.49 1.48 1.50 1.40 1.35 1.31 1.28 1.25 1.23 1.27
0.59 0.60 0.61 0.61 0.60 0.59 0.59 0.58 0.58 0.57 0.56 0.55 0.56 0.56 0.54 0.53 0.52 0.50 0.47 0.45 0.47 0.47 0.51 0.60 0.58 0.54 0.41 0.23 0.35 0.49 0.57 0.58 0.64 0.53 0.49 0.59 0.51 0.54 0.62 0.63 0.61 0.59 0.58 0.46 0.41 0.35 0.38 0.60 0.71 0.73 0.80 0.77 0.71 0.80 0.75 0.76 0.79 0.71 0.75 0.75 0.64 0.65 0.60 0.95 1.05 1.21 1.12 1.38 1.41 1.37 0.85 0.95 1.13 1.32 1.49 1.59 1.59 1.51 1.41 1.45 1.49 1.42 1.34 1.32 1.28 1.26 1.24 1.26
0.59 0.60 0.61 0.61 0.60 0.60 0.59 0.58 0.57 0.57 0.55 0.55 0.56 0.55 0.54 0.52 0.53 0.51 0.50 0.47 0.49 0.51 0.58 0.64 0.60 0.49 0.34 0.30 0.48 0.56 0.63 0.58 0.46 0.43 0.52 0.46 0.45 0.46 0.51 0.61 0.61 0.59 0.59 0.52 0.40 0.36 0.38 0.61 0.68 0.66 0.68 0.80 0.76 0.70 0.63 0.64 0.67 0.69 0.62 0.57 0.61 0.58 0.55 0.88 1.11 1.15 0.99 1.24 1.41 1.25 0.88 0.92 1.09 1.24 1.42 1.54 1.53 1.51 1.43 1.44 1.46 1.45 1.35 1.32 1.29 1.28 1.28 1.25
0.59 0.58 0.59 0.59 0.58 0.59 0.59 0.58 0.57 0.57 0.55 0.55 0.55 0.54 0.54 0.56 0.54 0.54 0.54 0.50 0.51 0.54 0.61 0.47 0.53 0.51 0.35 0.25 0.38 0.57 0.48 0.32 0.31 0.44 0.56 0.53 0.47 0.40 0.54 0.56 0.64 0.60 0.59 0.53 0.48 0.40 0.44 0.55 0.53 0.61 0.66 0.67 0.64 0.62 0.58 0.55 0.56 0.60 0.56 0.50 0.51 0.54 0.63 0.74 0.98 1.17 1.23 1.22 1.29 1.15 0.88 0.96 0.99 1.23 1.35 1.48 1.47 1.45 1.41 1.43 1.44 1.45 1.40 1.33 1.30 1.30 1.31 1.28
0.57 0.57 0.58 0.58 0.58 0.58 0.58 0.58 0.58 0.57 0.56 0.56 0.56 0.55 0.59 0.60 0.58 0.58 0.59 0.56 0.54 0.61 0.54 0.43 0.54 0.57 0.24 0.43 0.49 0.40 0.34 0.37 0.39 0.35 0.48 0.53 0.47 0.44 0.47 0.54 0.56 0.54 0.57 0.52 0.46 0.41 0.45 0.43 0.51 0.55 0.58 0.54 0.61 0.60 0.49 0.44 0.46 0.49 0.52 0.48 0.49 0.48 0.63 0.60 0.93 1.10 1.19 1.17 1.04 1.17 0.98 0.96 1.05 1.21 1.29 1.39 1.42 1.39 1.34 1.38 1.43 1.44 1.42 1.36 1.32 1.32 1.32 1.28
0.56 0.56 0.57 0.58 0.57 0.57 0.57 0.57 0.58 0.57 0.57 0.56 0.55 0.55 0.57 0.63 0.63 0.58 0.56 0.57 0.60 0.60 0.64 0.70 0.66 0.47 0.37 0.36 0.31 0.31 0.34 0.33 0.33 0.33 0.36 0.46 0.49 0.46 0.41 0.46 0.54 0.52 0.48 0.38 0.40 0.35 0.45 0.43 0.53 0.40 0.44 0.50 0.54 0.52 0.42 0.35 0.42 0.45 0.46 0.43 0.44 0.48 0.65 0.69 0.67 0.89 1.05 1.11 1.00 1.06 1.01 0.98 1.04 1.13 1.22 1.30 1.38 1.34 1.31 1.34 1.39 1.42 1.43 1.40 1.32 1.31 1.32 1.30
0.56 0.55 0.56 0.57 0.57 0.57 0.57 0.57 0.57 0.57 0.58 0.57 0.56 0.60 0.62 0.65 0.60 0.58 0.47 0.47 0.36 0.29 0.29 0.37 0.43 0.30 0.21 0.33 0.37 0.34 0.32 0.32 0.29 0.26 0.24 0.31 0.39 0.44 0.41 0.46 0.52 0.42 0.32 0.29 0.32 0.40 0.52 0.52 0.51 0.39 0.30 0.37 0.43 0.47 0.46 0.48 0.47 0.48 0.48 0.46 0.44 0.42 0.45 0.49 0.72 0.95 0.98 0.90 0.87 0.91 0.84 0.85 0.97 1.04 1.12 1.23 1.30 1.27 1.31 1.36 1.37 1.40 1.44 1.43 1.34 1.29 1.30 1.29
0.56 0.55 0.55 0.56 0.56 0.57 0.57 0.57 0.57 0.57 0.59 0.52 0.48 0.47 0.40 0.30 0.29 0.31 0.40 0.40 0.29 0.28 0.33 0.36 0.48 0.49 0.43 0.36 0.29 0.34 0.36 0.30 0.24 0.25 0.25 0.29 0.29 0.31 0.32 0.43 0.44 0.45 0.30 0.26 0.36 0.45 0.58 0.40 0.33 0.28 0.32 0.40 0.45 0.49 0.52 0.55 0.54 0.51 0.51 0.49 0.44 0.43 0.45 0.52 0.55 0.58 0.88 0.86 0.82 0.84 0.83 0.80 0.85 0.97 1.04 1.13 1.22 1.23 1.26 1.28 1.31 1.35 1.39 1.42 1.39 1.30 1.27 1.28
0.56 0.55 0.55 0.56 0.56 0.57 0.57 0.57 0.57 0.58 0.59 0.52 0.46 0.34 0.25 0.27 0.21 0.20 0.26 0.26 0.31 0.34 0.33 0.38 0.44 0.38 0.34 0.34 0.34 0.30 0.24 0.23 0.24 0.24 0.27 0.35 0.26 0.27 0.25 0.36 0.37 0.32 0.32 0.38 0.41 0.54 0.55 0.39 0.35 0.40 0.44 0.47 0.48 0.49 0.51 0.52 0.53 0.51 0.48 0.47 0.44 0.44 0.41 0.48 0.51 0.55 0.79 0.73 0.66 0.76 0.77 0.78 0.81 0.92 1.02 1.11 1.14 1.11 1.15 1.19 1.26 1.31 1.36 1.41 1.42 1.35 1.28 1.28
0.56 0.55 0.55 0.55 0.56 0.57 0.57 0.57 0.57 0.60 0.60 0.52 0.43 0.34 0.36 0.38 0.42 0.42 0.33 0.21 0.26 0.31 0.34 0.39 0.44 0.37 0.39 0.37 0.36 0.35 0.30 0.22 0.21 0.24 0.30 0.28 0.24 0.22 0.26 0.30 0.30 0.27 0.36 0.39 0.46 0.44 0.38 0.31 0.39 0.47 0.52 0.52 0.50 0.48 0.48 0.47 0.47 0.48 0.45 0.45 0.43 0.43 0.44 0.47 0.47 0.52 0.59 0.71 0.57 0.68 0.67 0.65 0.72 0.82 0.96 1.02 1.04 1.09 1.14 1.15 1.17 1.25 1.31 1.36 1.41 1.41 1.36 1.32
0.57 0.57 0.55 0.55 0.55 0.56 0.56 0.57 0.57 0.60 0.55 0.45 0.40 0.40 0.39 0.48 0.52 0.47 0.39 0.29 0.23 0.29 0.31 0.35 0.34 0.34 0.31 0.32 0.31 0.32 0.24 0.22 0.20 0.23 0.26 0.29 0.24 0.25 0.28 0.27 0.26 0.29 0.34 0.37 0.34 0.35 0.30 0.33 0.43 0.52 0.53 0.48 0.45 0.43 0.40 0.38 0.40 0.41 0.41 0.39 0.37 0.43 0.39 0.35 0.40 0.48 0.61 0.62 0.52 0.54 0.55 0.55 0.64 0.78 0.87 1.01 1.03 1.08 1.17 1.21 1.25 1.32 1.31 1.33 1.38 1.42 1.39 1.34
0.58 0.58 0.57 0.55 0.55 0.55 0.56 0.55 0.56 0.54 0.50 0.48 0.45 0.44 0.52 0.55 0.51 0.45 0.34 0.23 0.20 0.24 0.33 0.34 0.33 0.31 0.26 0.24 0.26 0.25 0.23 0.25 0.26 0.24 0.34 0.27 0.22 0.27 0.28 0.29 0.25 0.28 0.27 0.33 0.35 0.34 0.32 0.38 0.47 0.50 0.50 0.47 0.42 0.42 0.38 0.33 0.29 0.35 0.39 0.38 0.37 0.39 0.41 0.39 0.37 0.42 0.44 0.55 0.56 0.50 0.46 0.47 0.52 0.53 0.66 0.88 1.06 1.09 1.16 1.22 1.26 1.33 1.38 1.42 1.47 1.49 1.48 1.41
0.60 0.59 0.58 0.57 0.55 0.55 0.54 0.54 0.44 0.47 0.53 0.50 0.47 0.55 0.58 0.56 0.53 0.47 0.33 0.26 0.25 0.26 0.37 0.32 0.33 0.28 0.28 0.28 0.24 0.22 0.24 0.26 0.26 0.31 0.36 0.30 0.25 0.26 0.29 0.36 0.32 0.24 0.28 0.32 0.33 0.31 0.32 0.40 0.44 0.42 0.44 0.43 0.40 0.37 0.37 0.34 0.26 0.28 0.35 0.37 0.38 0.41 0.40 0.41 0.40 0.37 0.34 0.34 0.39 0.43 0.30 0.32 0.50 0.53 0.54 0.68 0.85 0.93 1.08 1.10 1.14 1.23 1.32 1.37 1.36 1.40 1.47 1.49
0.61 0.61 0.60 0.58 0.56 0.54 0.55 0.40 0.43 0.51 0.48 0.42 0.49 0.57 0.59 0.59 0.55 0.47 0.36 0.21 0.16 0.20 0.25 0.21 0.28 0.23 0.28 0.22 0.23 0.23 0.24 0.22 0.30 0.33 0.38 0.36 0.43 0.34 0.33 0.29 0.32 0.24 0.28 0.28 0.29 0.30 0.30 0.38 0.38 0.34 0.37 0.37 0.36 0.34 0.37 0.37 0.28 0.23 0.25 0.34 0.37 0.39 0.40 0.39 0.37 0.35 0.29 0.27 0.44 0.47 0.29 0.27 0.49 0.50 0.62 0.69 0.72 0.80 0.97 1.01 1.06 1.17 1.26 1.32 1.32 1.38 1.42 1.45
0.62 0.61 0.60 0.58 0.57 0.56 0.38 0.34 0.51 0.50 0.40 0.44 0.56 0.60 0.60 0.58 0.55 0.44 0.31 0.16 0.13 0.23 0.22 0.25 0.25 0.26 0.27 0.24 0.24 0.24 0.16 0.21 0.31 0.36 0.34 0.35 0.34 0.38 0.31 0.27 0.31 0.28 0.34 0.34 0.26 0.23 0.29 0.31 0.32 0.32 0.32 0.31 0.30 0.27 0.33 0.35 0.30 0.23 0.29 0.30 0.33 0.35 0.35 0.35 0.34 0.32 0.30 0.35 0.34 0.46 0.38 0.29 0.28 0.45 0.67 0.76 0.74 0.78 0.84 0.92 1.00 1.10 1.20 1.27 1.32 1.37 1.40 1.44
0.62 0.61 0.60 0.59 0.58 0.55 0.42 0.47 0.47 0.41 0.43 0.52 0.60 0.59 0.61 0.55 0.50 0.45 0.28 0.10 0.12 0.28 0.21 0.22 0.26 0.31 0.26 0.24 0.24 0.20 0.22 0.29 0.24 0.28 0.33 0.32 0.31 0.26 0.27 0.27 0.29 0.26 0.27 0.30 0.16 0.25 0.24 0.25 0.26 0.26 0.28 0.27 0.26 0.28 0.33 0.35 0.30 0.27 0.32 0.32 0.29 0.30 0.31 0.32 0.32 0.30 0.30 0.29 0.25 0.37 0.48 0.32 0.33 0.48 0.68 0.75 0.66 0.70 0.73 0.83 0.94 1.05 1.16 1.25 1.31 1.37 1.41 1.45
0.63 0.61 0.60 0.60 0.58 0.57 0.58 0.51 0.47 0.40 0.50 0.56 0.58 0.59 0.56 0.51 0.44 0.35 0.24 0.13 0.25 0.25 0.31 0.22 0.31 0.26 0.25 0.25 0.21 0.23 0.23 0.25 0.23 0.27 0.32 0.32 0.33 0.26 0.22 0.25 0.29 0.28 0.25 0.26 0.24 0.22 0.24 0.24 0.24 0.23 0.24 0.23 0.28 0.31 0.34 0.33 0.27 0.32 0.35 0.34 0.32 0.31 0.30 0.30 0.29 0.28 0.28 0.26 0.23 0.27 0.42 0.28 0.30 0.47 0.55 0.71 0.67 0.65 0.69 0.82 0.95 1.05 1.13 1.22 1.29 1.36 1.42 1.47
0.64 0.62 0.62 0.61 0.58 0.55 0.53 0.57 0.49 0.52 0.56 0.56 0.56 0.54 0.52 0.47 0.39 0.26 0.16 0.12 0.26 0.19 0.26 0.26 0.26 0.22 0.24 0.21 0.20 0.23 0.22 0.23 0.27 0.28 0.28 0.26 0.29 0.27 0.26 0.29 0.28 0.26 0.24 0.27 0.25 0.23 0.26 0.27 0.27 0.23 0.22 0.22 0.25 0.27 0.29 0.30 0.30 0.35 0.32 0.29 0.29 0.28 0.27 0.29 0.28 0.28 0.26 0.21 0.23 0.26 0.37 0.33 0.25 0.38 0.46 0.54 0.62 0.71 0.82 0.93 1.02 1.10 1.17 1.24 1.31 1.36 1.40 1.43
0.67 0.66 0.65 0.65 0.50 0.50 0.51 0.40 0.45 0.55 0.56 0.56 0.54 0.53 0.48 0.40 0.30 0.20 0.12 0.20 0.26 0.24 0.28 0.26 0.23 0.25 0.22 0.20 0.19 0.23 0.23 0.24 0.25 0.25 0.22 0.25 0.23 0.24 0.24 0.22 0.29 0.26 0.24 0.24 0.25 0.27 0.27 0.25 0.24 0.25 0.27 0.27 0.27 0.25 0.28 0.30 0.30 0.30 0.28 0.26 0.26 0.24 0.25 0.24 0.24 0.27 0.21 0.18 0.24 0.26 0.29 0.38 0.22 0.30 0.51 0.73 0.84 0.92 0.94 0.88 0.96 1.04 1.08 1.11 1.16 1.24 1.34 1.39
0.66 0.66 0.66 0.63 0.62 0.65 0.43 0.38 0.50 0.59 0.58 0.59 0.55 0.46 0.39 0.22 0.24 0.16 0.16 0.30 0.19 0.23 0.24 0.24 0.25 0.24 0.23 0.23 0.22 0.22 0.22 0.24 0.25 0.23 0.21 0.22 0.20 0.19 0.21 0.18 0.23 0.19 0.19 0.20 0.22 0.26 0.24 0.23 0.25 0.24 0.27 0.27 0.25 0.24 0.25 0.27 0.28 0.28 0.28 0.27 0.21 0.19 0.18 0.15 0.18 0.17 0.18 0.18 0.23 0.26 0.30 0.33 0.29 0.41 0.52 0.62 0.69 0.76 0.91 1.07 1.05 0.97 0.95 1.03 1.11 1.18 1.25 1.33
0.64 0.64 0.67 0.67 0.68 0.60 0.61 0.61 0.65 0.64 0.64 0.61 0.51 0.43 0.30 0.19 0.14 0.21 0.20 0.24 0.20 0.26 0.24 0.29 0.24 0.24 0.24 0.22 0.22 0.24 0.25 0.21 0.27 0.24 0.24 0.24 0.21 0.21 0.24 0.24 0.24 0.22 0.17 0.21 0.21 0.23 0.23 0.25 0.24 0.24 0.25 0.28 0.26 0.22 0.22 0.21 0.25 0.25 0.24 0.24 0.20 0.16 0.14 0.12 0.14 0.18 0.20 0.23 0.26 0.24 0.34 0.24 0.34 0.42 0.56 0.62 0.73 0.82 0.86 0.89 1.00 1.08 1.12 1.13 1.15 1.20 1.25 1.30
0.65 0.66 0.62 0.64 0.66 0.65 0.65 0.68 0.66 0.68 0.62 0.54 0.41 0.30 0.22 0.15 0.16 0.26 0.22 0.23 0.24 0.28 0.27 0.25 0.25 0.25 0.24 0.21 0.23 0.25 0.21 0.26 0.25 0.24 0.24 0.22 0.22 0.19 0.21 0.24 0.24 0.21 0.22 0.21 0.19 0.21 0.18 0.18 0.21 0.23 0.21 0.26 0.25 0.24 0.25 0.24 0.24 0.24 0.27 0.25 0.22 0.20 0.16 0.11 0.13 0.12 0.15 0.19 0.22 0.30 0.25 0.24 0.23 0.29 0.54 0.63 0.76 0.87 0.89 0.87 0.88 0.91 0.97 1.10 1.26 1.34 1.34 1.32
0.67 0.64 0.62 0.62 0.62 0.64 0.65 0.66 0.67 0.65 0.54 0.40 0.28 0.22 0.17 0.17 0.21 0.20 0.21 0.24 0.26 0.27 0.25 0.28 0.25 0.24 0.23 0.24 0.25 0.26 0.26 0.22 0.27 0.24 0.23 0.22 0.20 0.22 0.21 0.22 0.24 0.24 0.22 0.17 0.20 0.21 0.20 0.20 0.24 0.26 0.25 0.26 0.24 0.27 0.29 0.27 0.25 0.27 0.28 0.29 0.23 0.21 0.24 0.17 0.18 0.17 0.18 0.19 0.20 0.23 0.20 0.22 0.28 0.41 0.50 0.64 0.74 0.85 0.88 0.84 0.82 0.79 0.84 0.92 1.07 1.22 1.29 1.31
0.65 0.57 0.62 0.52 0.53 0.58 0.65 0.64 0.63 0.61 0.44 0.32 0.25 0.20 0.19 0.21 0.19 0.24 0.23 0.29 0.28 0.25 0.26 0.27 0.26 0.23 0.23 0.24 0.26 0.25 0.28 0.24 0.25 0.25 0.23 0.23 0.25 0.23 0.26 0.26 0.24 0.25 0.22 0.17 0.20 0.16 0.20 0.18 0.26 0.26 0.26 0.24 0.26 0.29 0.28 0.29 0.20 0.25 0.26 0.22 0.24 0.29 0.25 0.22 0.23 0.24 0.22 0.20 0.18 0.25 0.23 0.25 0.32 0.31 0.41 0.50 0.67 0.77 0.82 0.82 0.80 0.79 0.83 0.89 0.98 1.10 1.20 1.30
0.55 0.59 0.47 0.50 0.50 0.58 0.63 0.65 0.59 0.50 0.41 0.31 0.26 0.22 0.25 0.25 0.28 0.27 0.29 0.27 0.28 0.28 0.25 0.21 0.23 0.23 0.22 0.22 0.24 0.25 0.26 0.27 0.26 0.24 0.20 0.25 0.22 0.25 0.25 0.27 0.29 0.26 0.27 0.23 0.20 0.24 0.17 0.18 0.25 0.24 0.22 0.24 0.28 0.30 0.31 0.31 0.31 0.27 0.23 0.26 0.30 0.32 0.29 0.23 0.17 0.20 0.18 0.16 0.18 0.24 0.23 0.24 0.23 0.18 0.44 0.50 0.55 0.69 0.80 0.82 0.84 0.84 0.82 0.85 0.93 1.09 1.21 1.26
0.54 0.54 0.53 0.47 0.50 0.58 0.63 0.62 0.54 0.44 0.37 0.31 0.25 0.27 0.30 0.26 0.30 0.30 0.31 0.29 0.29 0.28 0.25 0.23 0.24 0.27 0.23 0.24 0.23 0.25 0.27 0.24 0.25 0.24 0.22 0.24 0.20 0.30 0.26 0.26 0.30 0.28 0.27 0.28 0.22 0.22 0.24 0.17 0.21 0.25 0.24 0.24 0.27 0.28 0.27 0.32 0.33 0.28 0.27 0.33 0.24 0.19 0.18 0.23 0.20 0.16 0.15 0.15 0.18 0.25 0.28 0.28 0.28 0.30 0.43 0.44 0.53 0.64 0.75 0.83 0.83 0.81 0.82 0.83 0.91 1.03 1.15 1.26
0.54 0.47 0.39 0.47 0.56 0.58 0.58 0.58 0.45 0.38 0.34 0.28 0.26 0.25 0.30 0.30 0.33 0.32 0.33 0.32 0.31 0.28 0.24 0.26 0.23 0.26 0.26 0.24 0.26 0.28 0.27 0.22 0.25 0.24 0.21 0.24 0.20 0.29 0.27 0.28 0.25 0.30 0.29 0.27 0.22 0.25 0.24 0.17 0.19 0.24 0.23 0.24 0.25 0.25 0.21 0.25 0.30 0.32 0.33 0.30 0.31 0.28 0.23 0.19 0.21 0.23 0.20 0.16 0.17 0.22 0.27 0.23 0.37 0.43 0.53 0.55 0.65 0.73 0.75 0.77 0.82 0.88 0.88 0.88 0.89 0.96 1.08 1.12
0.46 0.41 0.35 0.49 0.55 0.56 0.55 0.47 0.40 0.36 0.32 0.26 0.28 0.28 0.34 0.30 0.32 0.35 0.35 0.33 0.30 0.28 0.26 0.26 0.27 0.25 0.27 0.26 0.27 0.25 0.28 0.27 0.25 0.25 0.23 0.26 0.23 0.31 0.28 0.31 0.26 0.27 0.29 0.28 0.24 0.27 0.22 0.24 0.16 0.20 0.24 0.23 0.20 0.24 0.23 0.25 0.24 0.25 0.26 0.26 0.28 0.27 0.31 0.28 0.27 0.24 0.20 0.19 0.18 0.20 0.20 0.29 0.41 0.53 0.59 0.64 0.70 0.76 0.78 0.74 0.80 0.87 0.93 0.93 0.94 0.97 1.00 1.01
0.50 0.36 0.35 0.50 0.52 0.52 0.47 0.39 0.33 0.29 0.29 0.32 0.33 0.32 0.34 0.32 0.33 0.34 0.36 0.36 0.33 0.35 0.30 0.28 0.28 0.25 0.26 0.26 0.25 0.28 0.26 0.27 0.27 0.25 0.25 0.25 0.25 0.21 0.31 0.31 0.30 0.26 0.28 0.26 0.24 0.25 0.21 0.21 0.17 0.19 0.20 0.20 0.23 0.27 0.27 0.26 0.27 0.26 0.25 0.25 0.26 0.25 0.23 0.19 0.18 0.26 0.25 0.22 0.20 0.19 0.19 0.32 0.43 0.52 0.62 0.72 0.76 0.77 0.81 0.78 0.76 0.81 0.88 0.94 0.93 0.96 1.00 0.98
0.36 0.28 0.32 0.50 0.49 0.45 0.37 0.28 0.27 0.31 0.28 0.27 0.28 0.31 0.33 0.37 0.32 0.32 0.32 0.34 0.34 0.33 0.36 0.32 0.32 0.30 0.29 0.28 0.28 0.27 0.26 0.26 0.27 0.26 0.27 0.25 0.30 0.28 0.32 0.35 0.32 0.31 0.26 0.22 0.22 0.26 0.25 0.22 0.18 0.17 0.19 0.22 0.25 0.29 0.31 0.30 0.29 0.28 0.28 0.27 0.28 0.27 0.26 0.22 0.18 0.20 0.25 0.26 0.30 0.28 0.25 0.29 0.44 0.49 0.61 0.74 0.78 0.80 0.83 0.82 0.77 0.79 0.83 0.90 0.95 0.96 0.99 1.04
0.35 0.31 0.44 0.50 0.49 0.42 0.34 0.26 0.28 0.27 0.25 0.27 0.32 0.32 0.35 0.34 0.33 0.32 0.27 0.28 0.27 0.34 0.33 0.32 0.31 0.29 0.31 0.30 0.30 0.29 0.29 0.26 0.28 0.26 0.29 0.29 0.30 0.33 0.36 0.36 0.34 0.30 0.29 0.23 0.26 0.23 0.29 0.19 0.16 0.17 0.21 0.25 0.27 0.29 0.32 0.29 0.28 0.25 0.26 0.29 0.29 0.27 0.27 0.25 0.24 0.26 0.23 0.24 0.22 0.25 0.23 0.32 0.45 0.49 0.58 0.74 0.78 0.82 0.84 0.82 0.78 0.79 0.81 0.86 0.92 0.95 0.96 0.99
0.38 0.35 0.38 0.47 0.49 0.41 0.33 0.23 0.23 0.24 0.27 0.29 0.29 0.28 0.31 0.30 0.29 0.27 0.26 0.27 0.26 0.28 0.30 0.32 0.33 0.34 0.31 0.34 0.31 0.28 0.32 0.24 0.31 0.29 0.27 0.31 0.29 0.39 0.38 0.36 0.35 0.30 0.28 0.25 0.21 0.23 0.16 0.18 0.15 0.14 0.15 0.19 0.22 0.25 0.25 0.27 0.27 0.25 0.24 0.26 0.28 0.30 0.29 0.29 0.29 0.31 0.24 0.25 0.23 0.22 0.19 0.28 0.41 0.45 0.61 0.69 0.71 0.73 0.78 0.80 0.81 0.77 0.82 0.83 0.87 0.95 1.01 1.04
0.40 0.42 0.42 0.43 0.46 0.39 0.29 0.30 0.28 0.26 0.27 0.26 0.26 0.25 0.26 0.26 0.30 0.30 0.29 0.26 0.29 0.28 0.27 0.28 0.33 0.34 0.32 0.34 0.31 0.32 0.32 0.29 0.26 0.33 0.31 0.32 0.31 0.37 0.36 0.35 0.35 0.31 0.32 0.32 0.27 0.26 0.17 0.16 0.13 0.09 0.09 0.10 0.11 0.14 0.17 0.19 0.22 0.24 0.26 0.24 0.26 0.28 0.29 0.28 0.24 0.25 0.22 0.27 0.25 0.22 0.23 0.30 0.32 0.37 0.56 0.66 0.68 0.67 0.75 0.78 0.80 0.80 0.82 0.86 0.87 0.91 0.98 1.06
0.32 0.26 0.35 0.38 0.41 0.39 0.38 0.40 0.34 0.30 0.28 0.27 0.26 0.27 0.29 0.26 0.29 0.32 0.31 0.28 0.30 0.29 0.29 0.28 0.30 0.31 0.29 0.29 0.27 0.27 0.28 0.32 0.28 0.27 0.29 0.29 0.31 0.33 0.35 0.34 0.32 0.30 0.28 0.27 0.25 0.21 0.15 0.17 0.15 0.12 0.10 0.10 0.13 0.17 0.23 0.27 0.24 0.20 0.23 0.24 0.24 0.26 0.29 0.29 0.28 0.25 0.22 0.24 0.24 0.25 0.26 0.29 0.28 0.30 0.52 0.61 0.68 0.66 0.67 0.71 0.73 0.75 0.79 0.89 0.94 0.94 0.97 1.02
0.40 0.28 0.31 0.26 0.38 0.34 0.33 0.35 0.32 0.33 0.28 0.32 0.24 0.28 0.25 0.26 0.28 0.29 0.33 0.26 0.31 0.29 0.28 0.28 0.27 0.23 0.24 0.24 0.24 0.24 0.27 0.26 0.29 0.27 0.27 0.26 0.30 0.31 0.33 0.31 0.28 0.27 0.26 0.22 0.24 0.20 0.15 0.13 0.16 0.15 0.15 0.15 0.17 0.17 0.20 0.22 0.20 0.22 0.22 0.22 0.24 0.24 0.25 0.25 0.25 0.24 0.27 0.24 0.21 0.27 0.29 0.27 0.27 0.35 0.51 0.57 0.64 0.69 0.68 0.71 0.74 0.77 0.77 0.81 0.92 0.95 0.99 1.00
0.29 0.34 0.40 0.38 0.28 0.23 0.27 0.26 0.32 0.30 0.30 0.30 0.26 0.30 0.25 0.24 0.24 0.23 0.29 0.30 0.31 0.31 0.24 0.27 0.27 0.26 0.25 0.23 0.25 0.21 0.24 0.24 0.25 0.22 0.27 0.27 0.26 0.28 0.26 0.29 0.25 0.25 0.25 0.22 0.24 0.17 0.14 0.12 0.16 0.15 0.14 0.17 0.17 0.18 0.19 0.19 0.19 0.21 0.21 0.22 0.21 0.24 0.23 0.21 0.22 0.26 0.27 0.24 0.22 0.26 0.28 0.27 0.30 0.45 0.55 0.58 0.63 0.66 0.69 0.71 0.77 0.81 0.79 0.80 0.89 0.92 0.97 0.96
0.42 0.40 0.40 0.47 0.28 0.30 0.29 0.30 0.31 0.28 0.26 0.27 0.25 0.26 0.23 0.22 0.21 0.25 0.24 0.24 0.26 0.25 0.27 0.20 0.23 0.25 0.26 0.26 0.23 0.21 0.24 0.19 0.20 0.26 0.24 0.24 0.24 0.23 0.21 0.24 0.25 0.26 0.24 0.22 0.21 0.22 0.18 0.14 0.16 0.16 0.15 0.16 0.17 0.18 0.19 0.17 0.18 0.18 0.18 0.19 0.20 0.20 0.20 0.21 0.22 0.24 0.25 0.25 0.28 0.29 0.31 0.31 0.42 0.51 0.58 0.62 0.68 0.68 0.72 0.78 0.79 0.78 0.78 0.80 0.85 0.92 0.92 0.95
0.32 0.34 0.29 0.38 0.35 0.31 0.30 0.30 0.29 0.27 0.23 0.27 0.22 0.24 0.24 0.23 0.21 0.24 0.26 0.24 0.20 0.23 0.29 0.23 0.24 0.26 0.27 0.26 0.24 0.21 0.24 0.25 0.24 0.22 0.27 0.25 0.24 0.24 0.21 0.21 0.22 0.24 0.24 0.20 0.21 0.24 0.18 0.16 0.19 0.16 0.13 0.14 0.17 0.19 0.19 0.18 0.17 0.15 0.17 0.18 0.18 0.18 0.19 0.22 0.22 0.23 0.25 0.25 0.30 0.37 0.37 0.34 0.53 0.63 0.63 0.70 0.71 0.72 0.71 0.69 0.71 0.80 0.85 0.83 0.83 0.91 0.92 0.93
0.47 0.52 0.49 0.31 0.26 0.29 0.31 0.29 0.26 0.25 0.22 0.24 0.22 0.24 0.24 0.24 0.23 0.26 0.25 0.31 0.26 0.23 0.25 0.23 0.26 0.25 0.27 0.25 0.24 0.24 0.27 0.27 0.27 0.27 0.29 0.27 0.21 0.26 0.20 0.22 0.25 0.19 0.21 0.21 0.22 0.22 0.21 0.17 0.20 0.16 0.10 0.10 0.15 0.15 0.15 0.16 0.15 0.13 0.13 0.15 0.16 0.16 0.16 0.18 0.18 0.24 0.25 0.25 0.32 0.35 0.32 0.36 0.52 0.63 0.66 0.70 0.68 0.65 0.63 0.67 0.71 0.78 0.86 0.88 0.84 0.87 0.93 0.93
0.54 0.57 0.57 0.41 0.25 0.31 0.26 0.29 0.27 0.25 0.18 0.23 0.24 0.23 0.23 0.23 0.27 0.28 0.24 0.31 0.33 0.31 0.30 0.28 0.28 0.26 0.26 0.26 0.25 0.28 0.32 0.32 0.31 0.31 0.32 0.32 0.32 0.29 0.28 0.25 0.25 0.22 0.21 0.22 0.27 0.21 0.22 0.19 0.16 0.16 0.11 0.10 0.16 0.16 0.14 0.13 0.10 0.08 0.11 0.16 0.19 0.20 0.20 0.21 0.21 0.24 0.34 0.38 0.31 0.27 0.30 0.49 0.54 0.60 0.58 0.62 0.65 0.64 0.64 0.67 0.71 0.78 0.86 0.89 0.87 0.88 0.93 0.95
Wind_Speed
19 19 18 18 18 18 17 17 16 16 15 15 14 14 14 14 14 13 13 13 13 13 13 12 12 12 12 12 12 12 11 11 12 12 13 13 13 14 13 15 18 20 19 19 18 17 15 14 14 13 13 11 9 9 8 7 5 4 3 3 3 3 3 3 4 5 6 7 8 9 8 8 7 7 7 7 7 9 8 7 8 6 7 10 11 13 16 16
19 19 19 19 19 19 18 18 17 17 16 16 15 15 15 15 15 14 14 14 14 13 13 13 13 13 13 12 12 12 11 12 12 12 14 14 13 14 14 14 17 20 20 19 19 18 16 16 15 14 13 11 9 9 8 7 7 6 4 4 3 3 3 2 4 5 5 6 8 8 8 8 8 8 8 7 7 8 7 7 9 9 9 11 13 16 16 16
19 19 19 19 19 19 19 19 18 18 17 17 16 16 16 16 16 16 15 15 14 14 14 13 13 13 13 12 12 12 11 11 12 12 13 14 15 15 14 15 17 19 19 19 19 18 17 17 16 15 13 11 10 10 9 8 7 6 5 4 4 4 2 1 3 5 5 7 9 8 8 8 8 9 8 7 7 7 7 8 9 11 11 13 15 16 16 16
20 20 20 20 20 20 20 19 19 19 19 18 18 17 17 17 17 17 16 15 15 15 14 14 13 13 13 13 12 12 12 11 12 12 11 13 15 16 15 15 17 18 19 19 18 18 17 17 17 15 14 11 11 10 9 9 8 7 7 6 4 4 3 2 3 4 6 8 9 9 9 8 8 9 8 8 8 5 6 8 9 11 13 14 15 16 16 15
20 20 20 20 20 20 20 20 20 20 19 19 19 18 18 18 18 17 17 16 16 15 15 14 14 13 13 13 13 12 12 11 12 12 10 12 15 16 16 16 16 17 18 18 18 17 17 17 17 15 14 12 12 11 10 11 9 7 7 6 5 3 2 2 3 4 6 8 8 8 8 8 8 8 9 9 7 4 6 8 9 12 13 13 15 15 16 15
20 20 20 21 21 21 21 20 20 20 20 20 20 19 19 18 18 18 18 17 16 16 15 15 14 14 13 13 13 13 12 12 13 12 11 12 15 16 16 17 16 16 17 18 17 17 17 17 17 16 14 13 12 12 11 12 10 8 7 6 6 5 3 2 3 5 7 8 8 7 8 8 8 8 9 9 6 5 6 8 10 12 13 14 14 15 16 15
21 21 21 21 21 21 21 21 21 21 21 21 21 20 20 19 19 19 18 17 17 16 15 15 15 14 13 13 13 13 13 13 13 13 13 13 15 16 16 17 17 16 17 18 18 17 17 18 18 17 15 13 13 13 12 12 12 10 7 6 6 6 5 4 5 6 7 8 8 7 8 9 9 8 9 8 7 6 7 8 10 11 12 14 15 15 15 15
22 21 21 22 22 22 22 22 22 22 22 22 21 21 20 20 19 19 18 18 17 16 16 15 15 15 14 13 13 13 14 15 14 14 14 14 15 16 16 17 17 17 17 18 19 18 17 18 18 17 15 15 14 14 13 12 12 11 9 8 7 6 6 6 6 7 8 7 7 8 8 9 9 8 9 9 8 8 7 8 9 11 13 14 14 15 15 14
22 22 22 22 23 23 23 23 23 23 22 22 22 22 21 20 20 19 19 18 17 17 16 16 15 15 14 14 13 13 14 15 14 14 14 15 15 16 17 17 18 18 17 18 19 19 18 18 19 17 16 16 15 14 14 12 11 11 11 9 7 7 6 7 8 9 8 7 8 9 7 7 8 8 8 9 9 9 9 10 10 12 13 13 14 15 15 15
23 23 23 23 23 24 24 24 23 23 23 22 22 22 21 21 20 20 19 18 17 17 16 16 16 15 14 14 13 13 15 14 14 15 15 15 15 16 17 18 18 19 18 18 19 19 19 18 19 17 15 16 15 14 14 13 11 11 11 10 8 7 7 9 10 9 9 7 9 8 6 6 7 7 8 9 10 10 10 11 11 12 13 13 13 14 15 15
25 25 24 24 24 24 24 24 24 24 23 23 22 22 22 21 21 20 19 19 18 17 16 16 16 15 15 14 14 15 15 14 15 15 15 15 16 17 18 19 19 19 19 18 19 20 19 18 19 17 15 15 15 14 14 14 12 12 11 9 8 6 6 10 10 10 9 7 9 8 5 6 7 6 7 10 11 10 11 12 12 13 13 13 13 13 14 14
25 25 25 25 24 24 24 24 24 24 23 23 22 22 21 22 22 21 20 19 18 17 16 16 16 15 14 15 16 16 14 14 15 16 16 16 16 16 17 19 19 19 20 19 19 21 20 19 18 17 15 14 14 14 13 13 12 13 11 9 8 5 6 9 9 10 9 7 9 9 6 6 7 6 7 11 11 10 12 12 12 13 13 13 13 13 13 14
26 26 26 25 25 25 24 24 24 23 23 22 21 21 21 21 21 21 20 19 18 17 16 16 16 15 14 15 17 16 15 15 16 16 17 16 15 15 16 19 19 19 20 20 20 21 21 19 18 17 16 14 14 14 13 13 13 13 12 10 9 6 7 9 9 10 9 8 11 10 6 7 8 8 7 11 12 10 11 12 12 12 12 13 13 13 13 14
27 26 26 26 25 25 24 24 24 23 22 21 20 20 20 20 20 20 19 18 18 17 17 16 16 15 15 16 16 16 16 16 16 16 17 17 16 15 16 18 19 19 19 19 19 20 22 20 18 17 16 15 14 13 12 12 13 13 12 11 10 8 8 9 9 11 9 9 12 10 6 6 8 9 9 11 12 11 12 12 13 12 12 13 13 13 13 14
27 27 27 26 26 25 24 24 23 23 21 20 20 19 18 18 18 18 18 18 17 17 17 16 15 15 15 15 16 16 16 16 16 17 18 18 17 16 17 18 18 19 19 18 18 19 22 21 19 18 17 16 14 13 12 12 12 12 12 11 10 10 9 9 10 12 10 10 13 10 7 7 8 10 10 11 13 12 11 12 13 13 12 13 13 13 14 14
27 27 27 27 26 25 24 23 23 22 20 19 19 17 16 16 16 17 17 17 17 17 17 16 16 15 14 15 15 15 16 16 16 17 18 19 18 17 17 18 17 19 19 19 18 18 20 21 19 19 18 16 15 14 13 11 12 12 12 12 11 10 10 9 11 13 11 10 13 12 9 7 7 9 11 12 13 13 11 11 13 14 13 13 13 13 14 14
28 27 27 27 27 25 24 23 22 20 19 18 17 15 14 13 14 15 15 16 16 17 17 16 16 15 15 15 15 15 15 16 16 16 18 19 19 18 17 17 17 18 19 19 19 18 19 20 19 19 18 17 16 15 13 12 12 12 12 12 11 11 11 10 11 13 13 12 13 13 11 9 7 8 11 12 13 13 12 12 13 13 13 13 13 14 14 14
28 28 28 28 27 25 24 22 21 19 18 17 15 14 12 11 12 14 14 15 16 16 16 17 16 15 16 16 15 15 15 15 16 16 18 19 19 19 18 17 18 19 18 18 19 19 19 19 17 17 17 17 16 15 15 15 14 13 12 12 11 10 11 11 10 12 13 13 14 14 13 12 10 9 11 12 13 13 13 12 12 13 14 13 13 14 15 15
29 29 29 28 27 25 23 22 20 18 17 15 14 12 11 12 13 14 14 15 16 16 16 17 17 16 16 16 16 15 14 15 15 16 18 19 19 19 18 18 18 19 18 18 18 19 19 18 16 17 18 18 18 17 17 16 15 14 14 13 12 11 11 11 10 11 13 13 13 14 14 14 13 11 12 13 14 14 13 13 12 12 13 13 13 14 15 16
30 29 29 28 27 25 23 21 19 17 16 14 13 12 11 12 13 14 15 15 17 17 17 18 18 17 17 17 16 14 14 15 15 16 17 18 19 19 18 18 18 18 18 18 19 20 19 18 17 18 18 18 19 19 19 17 16 14 14 13 13 12 12 12 11 11 12 12 13 15 15 14 14 13 14 14 15 15 14 14 12 12 13 14 14 14 15 16
30 29 29 28 26 24 22 20 18 16 14 12 12 11 11 11 12 14 15 15 16 17 18 18 18 18 18 17 16 14 14 14 14 15 17 18 19 19 18 17 17 18 19 19 19 18 19 20 19 18 19 19 18 19 18 18 17 15 14 14 13 13 13 13 12 11 12 12 12 13 14 15 14 14 14 15 16 16 16 15 15 14 14 14 14 15 15 16
30 29 29 28 25 22 20 18 16 15 12 11 10 10 10 10 11 13 14 14 16 16 17 18 17 18 18 17 16 15 14 14 14 15 17 17 18 19 18 17 18 19 19 19 18 18 19 19 19 19 19 18 17 17 18 18 18 17 16 15 14 14 13 13 12 11 12 13 12 12 14 15 14 14 15 16 17 17 18 18 17 16 14 15 15 16 16 15
30 29 28 27 24 21 19 17 15 13 11 10 10 9 9 10 10 12 13 14 15 15 16 17 17 18 17 16 16 15 15 15 14 15 17 17 18 18 17 17 18 19 19 19 19 19 19 19 20 20 18 18 17 16 17 17 18 18 17 17 16 15 13 13 13 11 11 13 12 11 13 14 13 13 14 17 18 18 18 18 17 17 16 16 16 16 17 17
30 29 28 26 23 19 17 15 13 11 10 10 10 9 9 10 10 10 11 12 14 15 16 16 17 17 17 16 16 16 16 15 15 16 16 16 17 17 17 17 18 18 19 20 20 19 19 19 19 19 18 19 18 17 16 17 18 19 19 19 17 16 16 16 14 12 12 13 13 11 11 13 13 14 14 15 17 17 18 18 18 18 17 16 16 16 17 18
29 28 27 25 21 18 16 13 10 9 10 10 10 10 10 9 10 10 10 11 12 14 15 15 15 16 16 15 16 16 16 15 15 16 16 16 17 17 16 16 17 18 19 20 19 18 19 19 17 17 18 19 19 18 18 18 17 18 19 20 19 18 18 17 14 12 11 12 12 11 10 12 12 13 14 13 15 16 17 18 19 19 18 17 17 17 18 18
29 27 26 23 19 16 13 10 9 9 9 9 9 10 9 9 10 10 9 9 10 12 13 14 14 15 15 15 16 16 15 15 15 15 15 16 17 16 16 16 16 18 19 19 19 18 18 19 18 17 18 18 19 19 19 18 17 17 18 20 20 20 19 18 15 13 13 13 13 11 11 12 12 12 13 13 14 16 16 18 19 19 19 18 18 18 18 18
28 26 24 21 18 14 10 8 8 8 8 8 9 9 9 9 9 10 9 8 9 11 12 13 13 14 14 15 15 15 15 16 15 14 14 15 16 15 16 16 16 16 17 17 17 18 18 17 17 17 18 18 18 18 19 18 17 17 17 17 18 20 20 19 17 15 15 14 13 11 11 12 12 12 12 12 13 15 16 17 18 19 19 19 18 19 19 19
27 24 22 19 15 12 8 7 7 6 6 7 8 8 8 9 9 9 9 8 9 11 11 12 13 13 14 14 15 14 15 16 15 15 14 14 15 15 16 17 18 16 16 16 17 17 17 16 17 17 17 18 18 18 18 18 17 17 17 17 17 19 19 18 17 17 15 14 14 13 11 11 12 12 11 11 12 14 16 16 16 17 19 20 19 19 20 20
26 23 20 17 13 10 7 6 5 5 6 6 7 7 8 9 9 9 8 9 9 10 11 11 11 13 13 13 14 14 14 14 15 16 14 12 13 14 15 17 18 16 15 15 17 17 16 16 17 16 16 17 18 18 18 19 18 17 17 17 17 17 18 17 17 17 15 15 16 15 13 11 11 12 11 10 11 13 14 14 14 16 18 19 20 20 20 20
25 21 18 15 12 8 6 5 5 4 5 5 6 6 7 8 8 8 8 9 10 10 10 10 11 12 13 13 13 13 13 13 14 14 13 12 11 12 14 16 16 16 15 14 16 17 16 16 16 15 15 17 18 17 18 19 18 16 15 15 15 16 16 16 16 16 15 16 17 17 15 12 10 11 10 9 10 11 12 12 13 15 17 19 20 20 21 21
24 20 17 13 10 7 5 4 4 3 3 4 4 4 6 7 8 7 8 9 10 9 9 10 11 11 12 13 13 12 13 13 12 12 12 12 11 10 12 14 15 15 15 15 16 16 14 15 16 16 15 15 16 16 16 16 16 16 16 15 16 16 15 15 16 16 16 17 17 16 14 13 11 10 8 9 11 11 12 13 13 15 17 19 20 20 21 21
23 19 15 11 8 6 4 3 3 2 3 3 2 4 6 6 6 6 8 9 9 9 9 10 10 11 12 13 12 12 12 12 11 12 13 12 12 12 12 14 16 16 15 16 17 16 15 16 16 16 15 14 15 16 15 15 14 16 16 16 16 15 15 16 16 17 17 17 16 15 14 13 13 11 9 10 11 11 12 13 14 16 18 18 19 20 21 21
21 18 13 9 7 6 4 4 3 2 2 2 3 4 6 6 5 5 7 8 8 9 9 10 10 11 12 12 11 11 11 11 11 11 12 12 12 13 12 12 14 16 16 17 16 15 16 16 15 15 15 14 15 17 17 16 15 16 17 17 17 16 15 17 17 16 16 17 17 15 15 14 13 12 10 9 10 10 11 11 12 14 17 19 20 21 21 21
20 16 13 9 7 6 5 4 4 3 1 2 4 5 6 6 5 5 6 7 8 8 8 9 10 10 11 11 12 12 11 10 10 10 11 12 12 12 12 11 11 13 15 15 15 16 16 16 14 14 15 15 15 17 18 19 18 18 19 18 17 17 17 17 17 17 17 17 16 15 15 14 15 13 10 9 9 9 8 9 9 10 13 17 21 21 21 22
18 15 13 10 9 7 6 5 4 2 2 4 5 6 6 5 5 5 5 7 8 8 8 8 9 10 10 10 11 11 11 11 10 10 10 11 11 11 11 11 10 12 14 14 14 15 15 16 15 15 15 14 15 17 18 19 18 18 18 17 17 18 17 16 16 17 17 16 15 17 16 14 16 16 11 9 10 8 7 8 8 8 9 12 18 21 21 22
16 14 13 12 10 9 8 6 4 2 3 5 5 5 5 5 5 5 6 7 7 8 8 8 8 9 9 10 10 9 9 10 10 10 10 10 10 10 10 12 11 10 12 13 13 14 14 15 16 15 15 14 15 16 17 17 19 18 17 18 19 19 17 16 15 15 15 15 16 17 16 14 15 16 12 11 10 8 8 8 8 9 8 9 12 17 21 22
14 14 14 13 12 10 8 6 5 3 4 5 5 5 5 5 5 5 5 6 6 7 8 8 8 9 9 10 10 10 9 9 10 10 10 10 10 9 10 11 11 10 11 12 12 13 14 15 16 15 15 16 15 15 16 16 18 18 18 19 19 17 17 17 16 14 14 16 16 15 14 13 13 15 14 12 11 9 9 8 8 8 8 8 10 12 16 21
14 13 13 14 13 11 8 6 5 4 5 4 5 5 5 4 3 4 4 5 6 6 7 9 8 9 10 10 10 9 10 10 10 10 10 10 10 10 10 11 11 9 10 11 11 12 12 14 15 15 16 16 15 14 15 15 15 18 19 19 18 17 18 17 16 16 16 16 16 15 15 13 12 13 13 11 11 11 11 10 8 8 8 9 10 11 13 16
13 12 13 14 13 11 9 7 6 6 5 4 4 4 3 3 2 2 2 4 5 5 6 9 8 8 9 10 10 9 8 9 10 10 10 10 10 10 10 11 11 10 9 10 11 12 12 13 14 15 15 15 14 14 15 15 15 16 17 18 18 18 18 18 17 17 17 17 17 16 15 15 14 14 12 11 12 12 12 11 9 9 9 9 10 11 12 14
13 11 11 13 12 10 9 9 8 6 4 3 4 3 2 2 1 1 1 2 4 5 6 7 7 8 8 8 9 9 8 8 9 10 10 10 11 10 10 10 11 11 10 10 10 12 12 12 13 14 14 14 14 13 14 15 15 15 16 16 17 17 17 17 17 17 17 17 18 17 16 17 16 15 14 12 12 13 13 12 12 10 9 9 9 10 10 13
12 11 11 13 11 9 9 9 7 4 3 3 2 2 2 2 0 2 2 1 3 4 5 6 6 7 8 7 8 8 8 8 8 9 9 9 10 10 9 10 11 11 10 10 11 11 12 13 13 13 13 13 14 14 14 14 13 14 16 16 17 17 18 17 17 17 17 17 18 18 18 18 17 15 15 13 12 13 13 14 14 13 10 8 9 9 9 9
12 10 10 11 10 9 10 10 7 5 4 3 2 1 1 1 0 2 2 0 2 4 4 5 5 6 7 7 7 8 8 7 7 8 9 9 10 10 10 9 10 10 10 10 12 12 12 12 12 13 14 15 16 16 15 14 14 14 15 15 16 17 17 18 18 18 17 17 18 18 18 19 18 16 15 14 13 14 13 14 15 15 13 10 8 8 8 8
12 11 10 10 8 8 10 9 7 6 5 3 3 3 2 1 0 1 1 1 2 4 4 4 5 5 6 7 7 7 8 7 7 8 10 10 10 10 10 9 8 9 10 11 12 12 12 12 12 13 15 16 17 17 15 15 15 15 15 15 16 17 17 18 19 19 17 17 18 18 19 20 18 16 16 15 14 13 13 13 14 16 15 11 9 8 8 8
12 11 11 10 8 7 7 6 6 7 6 5 4 3 3 2 1 1 0 0 1 3 4 4 5 5 5 6 6 7 8 8 8 8 9 10 10 10 9 8 8 9 10 11 12 12 13 13 13 13 14 15 16 17 17 16 16 16 16 15 15 16 16 18 18 18 18 18 18 19 20 21 19 17 16 16 15 13 13 13 13 15 15 13 10 10 9 8
11 11 11 12 10 8 6 5 5 6 5 5 5 4 3 3 2 3 2 1 1 2 3 4 4 5 5 5 5 6 6 7 9 9 9 10 10 10 8 8 8 9 10 10 11 12 13 13 14 14 15 16 17 18 19 18 17 17 16 15 15 15 16 18 18 18 19 19 19 20 21 22 19 17 16 16 16 15 14 14 13 14 15 14 12 11 11 10
10 10 10 11 11 10 8 5 5 5 4 4 4 4 3 2 2 3 3 2 1 1 1 2 3 4 4 4 5 5 5 6 7 8 9 9 10 10 9 8 8 8 8 8 9 10 12 12 13 14 16 17 18 18 19 19 18 18 17 16 16 16 16 18 18 18 20 20 20 21 22 21 20 18 17 16 16 16 15 15 14 14 15 15 12 12 12 11
10 9 9 9 9 9 9 7 6 5 3 3 3 3 3 2 1 2 3 1 1 1 1 2 3 3 4 5 5 6 6 6 6 7 8 9 10 10 9 8 7 8 8 8 9 10 11 11 11 12 14 16 17 18 18 17 18 19 18 18 18 18 17 18 19 21 21 20 21 22 22 20 20 19 18 18 17 17 16 16 16 15 15 14 13 12 12 12
9 9 8 8 8 7 7 7 7 6 5 4 3 2 3 3 2 2 3 2 2 2 2 3 4 4 4 5 6 7 7 6 7 8 8 8 9 9 9 9 8 8 8 8 9 9 10 11 12 12 13 14 15 16 16 16 18 19 19 19 20 20 19 19 21 22 22 21 23 23 22 21 21 20 19 19 18 17 17 16 16 15 14 13 13 12 13 14
9 9 9 9 9 7 7 7 7 8 7 6 5 3 3 3 3 3 3 3 3 4 2 3 4 5 4 4 5 6 7 7 8 9 9 9 9 9 9 10 10 8 8 9 9 9 10 11 11 11 12 13 14 15 16 16 17 19 19 20 21 21 22 22 22 23 23 24 24 23 23 23 22 22 21 20 19 18 17 17 15 15 15 15 14 13 13 14
9 9 8 9 9 8 8 8 7 8 7 7 6 5 4 4 4 3 3 2 2 4 3 2 4 4 3 3 4 6 8 8 8 9 10 9 10 10 10 11 11 9 9 9 10 9 10 11 11 11 11 13 14 15 15 16 18 19 20 21 21 21 22 22 22 22 23 24 23 22 23 23 22 22 22 22 21 19 18 17 16 16 17 16 15 14 13 14
8 8 8 8 8 8 8 7 7 7 6 6 5 5 5 5 4 4 4 3 2 2 2 2 3 3 3 3 3 6 8 9 9 10 11 10 11 11 11 11 11 10 9 10 10 10 10 10 11 10 11 13 14 14 15 17 17 18 19 19 20 21 21 22 23 23 23 24 23 22 23 24 23 23 23 23 21 20 19 18 18 18 18 17 16 15 15 14
7 7 8 7 7 7 7 6 6 6 5 5 5 5 5 4 4 4 5 5 4 3 1 1 1 2 2 3 4 6 8 9 10 11 11 11 12 12 12 12 12 11 10 10 10 10 10 10 11 11 11 13 14 14 15 15 14 16 17 17 19 21 21 22 23 23 23 24 24 24 24 25 25 24 24 23 22 21 21 20 19 19 19 19 18 17 16 16
Wind_Direction
315 313 311 310 308 306 303 301 299 297 296 294 292 290 288 286 285 284 284 283 282 279 273 268 263 259 255 252 250 247 246 244 242 234 230 227 221 215 209 206 204 201 199 196 196 195 194 195 193 192 191 192 195 192 189 191 189 173 157 135 113 114 123 128 136 137 140 147 152 158 162 155 151 146 140 132 125 132 133 126 133 131 128 138 140 144 147 144
315 313 311 309 307 305 302 299 297 295 293 292 290 287 286 284 283 281 281 280 280 277 272 268 262 257 254 251 248 245 244 242 239 233 228 223 215 210 206 203 200 198 196 195 196 194 193 196 195 192 192 195 198 196 193 192 190 185 167 146 138 133 135 131 138 146 146 153 159 163 165 158 153 150 144 136 132 136 129 125 130 123 126 135 140 145 148 145
315 313 311 309 307 304 301 298 296 293 291 290 288 286 284 282 281 279 278 277 276 275 271 266 260 255 252 250 246 244 242 237 232 228 226 219 210 205 202 199 196 195 196 196 196 195 195 195 193 192 192 197 200 198 197 193 189 188 174 159 164 151 137 112 133 154 153 152 159 163 162 155 154 154 148 140 138 141 136 134 132 130 136 142 144 149 149 148
315 313 311 310 307 304 302 298 295 292 290 288 287 285 283 281 279 278 276 274 273 272 269 264 258 253 250 248 245 241 237 232 226 223 223 214 205 201 200 197 194 194 196 197 195 195 195 192 192 192 193 197 200 199 199 197 190 182 174 171 174 149 128 112 118 143 147 151 159 159 158 156 158 160 153 145 143 146 150 147 141 140 144 147 149 152 153 153
315 313 312 310 307 305 303 299 295 292 290 288 286 284 282 280 278 276 274 272 270 268 266 261 255 251 248 245 242 239 232 227 224 221 219 209 200 198 198 195 194 194 194 195 195 194 193 192 192 193 195 198 198 199 201 199 192 185 184 187 196 180 148 132 122 138 145 151 158 158 164 163 161 164 161 158 153 145 148 147 145 147 149 152 153 154 156 157
316 314 312 310 308 305 303 300 297 293 289 287 285 284 281 279 277 275 272 270 267 265 262 257 252 249 245 241 239 235 227 226 224 220 214 203 198 197 196 196 193 194 194 194 194 193 192 192 192 193 196 198 198 200 201 199 195 194 193 193 207 205 187 166 145 150 151 152 160 163 166 163 162 168 168 167 160 140 142 145 146 151 154 156 156 157 160 161
318 316 313 310 307 305 303 301 298 294 290 286 284 282 281 278 276 273 270 268 265 262 259 254 250 246 243 239 237 232 227 227 223 217 210 201 198 196 196 197 195 195 194 193 194 195 193 192 192 193 195 198 200 202 205 203 199 201 203 203 212 211 203 190 165 162 159 157 163 162 162 168 168 167 168 172 166 150 144 145 150 153 156 158 158 161 164 163
319 316 313 310 307 304 302 301 298 295 291 287 283 281 279 277 274 271 267 265 262 260 256 251 247 243 240 237 234 232 228 225 220 214 207 201 200 198 197 199 197 197 196 195 195 195 194 192 193 193 196 201 199 201 207 207 204 203 209 213 212 213 210 195 176 169 162 154 157 159 160 169 169 163 168 173 170 160 147 145 151 154 157 159 160 163 167 166
319 316 313 310 306 304 301 300 299 296 292 287 283 280 278 275 272 269 265 261 259 257 253 248 244 240 238 234 231 229 225 221 217 212 207 203 203 202 202 202 200 199 198 198 196 195 195 194 195 195 197 202 200 202 206 205 205 204 210 216 212 222 215 188 178 173 167 155 154 159 158 162 163 161 170 176 172 163 150 148 153 155 159 161 162 166 169 169
319 316 313 310 307 304 302 300 298 296 293 288 283 280 276 273 269 266 262 259 256 254 251 246 240 236 235 233 227 224 222 218 215 211 208 206 206 205 206 205 202 200 200 200 197 196 197 196 196 196 198 201 201 205 207 203 208 214 217 219 220 233 219 185 178 176 171 163 159 161 162 164 165 165 173 180 175 164 155 154 156 158 162 164 164 168 171 172
319 316 314 311 308 306 303 301 299 297 294 289 284 280 275 271 266 263 259 256 253 251 246 242 237 232 232 230 224 222 221 217 214 212 210 207 206 207 207 205 203 201 201 201 200 198 198 198 196 197 200 203 204 209 213 210 215 225 224 223 229 232 203 183 178 177 174 172 170 156 149 166 172 174 178 176 173 167 161 159 162 163 165 167 167 169 173 175
319 317 315 312 309 307 304 303 301 298 294 290 285 279 274 269 264 260 256 252 250 246 241 238 233 230 231 229 225 223 220 216 212 212 212 208 208 210 208 205 205 203 202 202 202 200 199 199 196 197 201 203 204 209 217 218 220 225 220 218 227 221 191 186 182 181 179 180 175 156 150 182 184 180 177 173 171 168 166 166 168 168 168 169 170 171 175 177
319 317 315 313 310 307 305 304 302 299 296 291 284 278 272 266 261 256 251 247 245 241 236 232 229 229 230 229 225 221 220 217 212 213 213 211 210 210 207 206 206 206 204 204 203 201 200 201 198 198 201 202 205 209 218 223 221 220 215 212 217 218 205 196 188 186 186 184 179 171 179 196 190 187 179 173 173 170 170 172 173 174 172 172 173 173 175 178
320 318 316 313 310 308 306 304 302 300 297 292 285 278 271 264 258 251 245 242 240 236 232 228 227 228 228 226 223 222 222 218 214 213 212 212 210 209 206 204 206 206 206 205 203 202 201 201 200 202 205 206 209 212 216 218 215 213 213 214 212 213 213 204 193 188 188 189 186 187 199 200 192 193 189 179 177 175 174 175 176 177 177 177 177 176 176 180
321 318 316 314 311 308 306 304 302 300 297 292 286 279 271 262 254 246 239 237 235 231 228 227 226 227 229 226 222 221 221 217 215 212 210 210 208 208 206 203 204 204 205 205 203 202 201 201 202 204 209 210 210 212 211 211 212 211 210 215 217 212 213 209 200 195 194 195 192 193 203 205 197 191 191 188 183 180 181 180 179 181 182 182 181 180 179 182
321 319 316 314 312 309 306 304 301 299 296 292 288 279 271 261 250 240 234 231 229 227 226 226 226 225 225 224 220 218 218 217 216 212 209 210 208 208 204 201 202 202 203 204 202 201 199 201 205 207 210 211 208 207 208 209 211 212 207 209 215 210 211 211 206 202 198 195 200 204 206 205 203 192 190 193 189 185 186 186 184 185 187 186 185 185 184 184
321 318 316 314 312 310 307 303 300 297 294 292 287 276 268 257 242 232 229 226 225 226 226 225 224 223 223 221 218 216 218 220 217 212 210 211 209 207 203 202 203 200 201 202 201 201 199 202 206 209 211 210 208 205 206 210 210 213 209 207 213 209 207 209 208 206 199 196 204 212 215 212 210 196 191 195 194 190 190 189 187 188 190 190 189 189 190 189
321 318 315 313 312 310 307 302 298 294 291 290 283 270 260 249 236 228 226 226 226 225 225 223 219 218 221 219 217 217 220 220 218 213 211 210 208 207 205 205 203 198 199 201 201 201 201 205 206 208 212 208 208 205 205 210 207 205 206 206 213 212 207 207 208 207 202 204 208 210 219 223 217 203 198 200 199 197 196 193 190 191 193 193 192 191 194 194
321 318 314 312 311 310 306 301 296 290 288 285 274 261 253 248 240 232 230 231 228 223 222 220 215 216 219 218 218 220 220 217 216 213 209 208 206 207 206 204 200 197 200 202 203 203 201 205 207 207 211 209 209 207 205 209 203 199 202 202 206 210 210 209 212 212 203 208 214 211 218 225 220 212 209 207 205 204 202 198 195 196 197 198 196 194 195 197
322 318 314 312 311 309 306 301 294 287 284 278 265 254 253 253 245 239 238 235 228 222 221 219 216 221 221 218 219 221 219 215 215 213 208 207 204 204 205 203 201 201 203 202 204 206 203 206 209 208 208 209 210 210 208 208 205 203 204 203 206 209 213 211 212 214 204 208 221 218 221 228 225 220 217 212 210 210 206 202 201 201 201 202 200 197 196 199
322 318 315 313 311 309 305 300 292 285 279 269 258 252 250 252 246 242 242 236 229 224 222 219 218 222 221 218 219 217 218 217 215 213 208 206 202 202 206 205 202 205 207 203 202 205 205 208 210 208 209 209 210 211 211 211 211 211 208 208 210 209 214 212 212 217 210 211 223 222 224 231 230 224 219 214 212 214 211 208 207 206 205 205 205 202 198 199
323 320 316 314 313 310 305 298 290 282 273 259 252 247 244 249 247 240 236 235 233 225 220 218 218 220 220 219 219 215 214 216 214 212 208 204 203 204 207 205 203 206 208 204 202 205 209 212 212 211 210 209 210 210 211 214 214 214 213 212 213 213 216 216 217 221 213 214 224 223 223 232 232 225 220 216 216 219 218 215 213 210 208 207 207 206 202 199
325 321 318 316 315 310 304 297 286 276 265 252 246 242 244 250 247 238 231 231 232 224 216 215 215 217 218 218 215 210 209 210 209 209 207 203 204 206 205 204 204 206 207 205 203 204 209 214 214 212 209 209 213 212 210 217 218 217 215 214 216 216 214 214 219 221 214 218 223 220 227 236 233 226 222 219 219 222 222 222 219 214 212 211 209 208 206 202
326 324 321 319 317 311 304 296 282 269 258 249 243 240 247 248 242 237 229 224 226 222 214 212 212 213 217 216 211 207 207 208 207 206 205 202 204 206 206 206 205 207 209 206 203 205 211 216 213 209 209 210 215 215 212 216 222 221 218 215 216 215 213 215 220 223 224 228 227 223 236 243 232 225 225 221 220 223 221 221 221 218 215 215 213 212 209 207
327 326 324 323 319 312 305 293 277 265 255 246 241 241 247 246 239 232 222 216 219 219 212 210 212 213 214 213 209 208 208 209 209 206 204 201 202 205 208 208 206 209 211 206 205 209 215 218 211 209 212 212 214 218 215 213 218 223 220 215 214 214 216 219 222 226 228 230 229 225 232 240 235 228 226 222 220 221 219 218 219 219 216 216 216 214 211 210
328 327 327 325 320 315 306 289 276 269 254 243 241 242 244 241 235 223 212 204 207 213 210 208 209 210 210 209 207 206 205 208 208 204 204 204 204 204 206 209 209 209 208 207 209 213 216 217 212 210 212 211 215 220 218 212 213 221 220 213 211 213 217 220 219 221 222 224 230 228 224 234 241 237 230 224 220 221 220 219 219 218 216 216 216 214 212 211
330 329 328 326 323 318 304 288 282 269 250 245 244 243 241 236 225 213 205 198 203 208 207 207 208 207 207 205 202 201 203 206 203 201 203 206 209 208 206 210 210 208 208 207 211 214 214 216 214 212 211 210 214 220 218 211 210 218 217 208 208 213 216 218 216 218 222 226 235 233 222 230 240 239 233 223 220 223 223 221 219 217 215 216 217 215 213 212
333 331 330 328 326 320 304 291 287 266 249 250 247 243 236 225 213 203 196 195 204 204 201 205 207 206 205 202 199 200 202 202 200 205 206 204 211 211 208 210 207 207 209 204 208 216 213 211 213 213 212 213 214 216 212 209 212 217 213 208 209 211 213 215 216 221 225 227 234 232 220 225 235 238 234 222 219 223 222 220 217 214 214 215 216 216 214 214
337 335 333 332 330 323 309 297 285 265 257 254 246 238 227 214 204 197 193 194 200 199 197 201 202 203 203 199 200 201 200 200 203 208 208 207 213 210 208 211 207 207 210 204 206 214 212 211 212 210 213 216 217 217 211 208 213 214 210 210 213 212 213 215 217 221 225 225 228 228 220 221 232 237 232 222 221 223 221 221 218 216 216 216 218 217 217 216
340 338 336 337 335 328 317 299 280 269 265 253 241 230 215 204 195 192 195 193 192 196 197 200 200 200 197 194 199 201 199 203 206 205 207 210 212 208 209 212 208 208 213 210 209 214 216 215 213 212 216 218 218 219 214 209 211 213 212 212 212 216 217 218 221 220 223 227 227 225 219 217 227 235 229 225 232 232 225 223 220 218 218 218 218 218 217 216
342 340 339 339 339 334 325 308 286 273 264 248 236 217 197 193 189 184 191 190 191 197 197 198 200 195 189 188 196 203 201 204 209 208 210 214 211 211 214 215 212 211 215 215 214 217 219 218 218 218 220 220 217 216 216 214 212 212 214 210 209 217 219 220 225 220 219 226 227 223 217 212 218 227 234 242 248 246 235 226 221 217 217 218 218 218 217 216
345 345 344 343 345 342 337 325 302 285 271 251 218 189 179 179 182 185 192 193 194 197 193 195 199 194 189 187 193 203 202 203 210 209 208 212 210 208 210 213 213 210 212 215 215 217 217 217 222 223 222 222 217 216 218 218 213 210 210 206 206 214 216 218 221 219 220 225 226 223 216 213 216 220 234 244 246 248 242 235 230 224 221 219 219 219 219 218
350 353 356 356 356 354 348 336 323 311 283 237 184 174 165 163 176 188 194 193 190 193 193 195 196 189 187 189 193 199 199 202 211 210 208 209 207 206 208 212 212 209 210 212 213 215 216 219 226 225 224 226 219 215 217 216 213 212 210 206 206 209 212 217 221 221 222 224 225 225 219 216 215 217 230 239 240 246 247 245 243 238 231 225 222 222 221 220
357 3 9 10 8 4 354 343 339 331 293 167 159 159 145 150 177 179 181 189 188 190 193 193 192 186 185 191 196 197 196 202 208 207 208 208 205 209 212 214 216 212 209 209 211 213 212 218 225 222 223 228 222 217 216 215 215 215 212 209 209 210 211 216 220 219 219 220 222 221 217 215 209 205 214 227 234 245 250 254 256 255 247 232 224 223 222 221
2 10 15 14 13 9 1 360 3 11 111 128 137 139 133 150 180 174 177 188 186 188 194 191 188 186 189 195 201 200 196 201 208 206 207 207 205 210 214 217 220 215 210 210 214 216 212 217 225 223 223 226 224 223 218 213 214 216 213 210 213 213 212 215 217 216 215 215 217 216 216 218 210 206 217 231 234 244 254 261 264 266 268 245 226 222 221 220
9 16 18 16 15 13 12 18 23 49 110 124 124 122 130 151 170 170 180 186 183 187 191 190 187 187 193 200 206 210 204 203 208 207 208 208 206 211 215 217 219 216 210 208 214 218 214 218 227 228 227 225 223 224 220 213 215 216 213 213 215 214 211 213 217 219 214 211 216 219 220 225 217 213 231 243 238 246 251 255 260 260 268 262 237 225 221 218
15 18 19 19 16 14 21 28 28 61 104 121 120 120 139 154 162 173 184 189 192 191 186 189 195 196 199 200 205 214 212 208 210 209 210 211 212 217 221 219 218 217 212 208 212 217 213 218 225 224 226 230 229 224 221 219 217 214 213 215 216 214 213 213 215 218 216 211 216 218 218 223 220 220 237 246 241 246 247 244 255 262 264 265 258 245 230 220
18 19 20 18 15 16 26 31 37 76 95 104 112 121 143 150 157 182 194 199 199 197 193 195 200 201 200 199 205 215 214 212 216 212 208 212 215 217 220 221 221 225 226 215 214 219 215 217 223 221 223 231 232 222 220 227 224 215 214 216 214 213 216 216 214 214 215 213 216 218 217 220 224 229 240 246 242 244 245 242 246 257 261 260 261 261 250 231
16 18 18 14 15 21 28 38 54 74 84 100 111 120 147 157 156 183 199 202 199 199 201 201 201 201 202 201 207 215 213 211 214 211 210 214 214 215 219 222 225 232 232 220 217 223 222 217 222 228 228 228 226 219 219 228 229 219 217 218 216 214 214 214 215 215 215 214 215 218 221 224 228 232 234 240 244 242 242 242 240 244 253 258 258 260 258 243
17 18 15 12 17 25 31 42 50 55 76 112 119 123 147 161 184 357 62 180 199 201 199 202 204 202 203 205 208 213 211 210 213 212 213 214 212 216 221 220 226 232 229 221 220 225 226 221 223 234 235 224 219 219 218 222 226 222 218 218 219 218 215 213 216 218 215 215 216 216 218 223 228 230 228 234 243 242 240 241 242 244 248 256 262 264 262 249
18 18 12 13 23 33 37 40 38 41 77 103 113 133 142 137 236 328 0 121 184 191 189 196 203 202 203 205 209 213 209 209 216 212 210 212 210 214 221 222 226 230 227 226 228 228 227 224 223 230 229 217 214 218 216 213 217 218 216 217 219 218 215 213 217 221 218 215 217 216 216 221 226 229 227 228 235 240 243 244 245 248 250 256 265 269 269 257
21 18 10 16 28 36 39 38 33 46 70 76 84 95 98 118 273 316 333 10 183 189 188 195 201 204 207 206 207 211 206 206 219 213 207 212 210 213 227 232 228 226 223 226 232 231 227 224 223 225 222 217 217 221 218 212 213 216 216 218 219 218 215 213 216 220 219 218 219 217 217 221 225 229 229 229 233 237 243 247 247 248 249 254 265 269 271 265
23 19 15 19 25 34 41 38 32 42 53 60 71 63 64 110 221 323 338 339 200 195 196 201 203 204 210 211 211 214 211 209 216 211 208 213 216 221 232 236 229 227 227 229 234 234 230 226 224 224 225 225 224 224 224 219 217 219 221 221 220 222 221 217 215 215 217 220 221 219 220 222 227 234 233 233 236 236 241 248 249 248 247 250 258 262 264 262
25 22 21 19 21 32 42 41 42 48 47 48 58 54 57 89 82 45 29 330 202 191 199 209 210 207 211 216 217 221 221 214 214 215 212 214 221 229 236 236 233 234 234 234 236 236 232 227 222 220 225 228 228 228 228 226 222 220 224 226 225 226 225 219 218 218 217 220 220 220 222 223 228 238 238 238 239 236 240 247 247 247 247 248 250 251 254 256
23 22 21 22 29 39 43 45 53 54 48 46 51 47 48 66 66 55 58 61 89 157 190 209 212 209 215 221 223 232 233 220 218 222 220 220 226 233 240 245 241 239 242 243 239 233 229 227 222 219 221 224 225 227 228 228 228 225 227 231 230 229 227 222 221 221 219 221 223 222 224 227 232 238 239 241 241 238 241 246 246 248 248 248 247 245 246 248
21 20 17 20 29 38 42 42 43 44 44 43 39 32 34 43 37 35 44 47 28 69 163 213 220 216 227 228 223 238 247 232 224 223 223 228 232 236 244 250 250 249 249 250 245 231 225 227 225 219 220 222 222 226 228 228 230 231 232 235 234 232 231 225 222 222 222 225 228 226 226 232 239 242 241 243 244 241 242 245 245 247 249 249 247 244 244 245
23 20 18 20 24 30 34 34 32 30 26 28 27 17 15 11 345 358 9 342 307 320 262 262 254 234 235 230 224 236 246 242 235 229 229 235 236 240 246 248 253 259 252 249 246 232 222 227 228 222 224 226 225 229 234 231 230 233 235 237 237 237 235 228 226 226 224 226 230 228 228 235 242 243 243 244 245 243 244 246 245 245 248 250 248 245 245 246
25 24 24 29 29 29 32 32 35 38 33 27 30 18 8 11 360 332 323 311 308 301 269 271 283 266 245 233 227 233 238 240 243 238 236 239 240 243 248 247 251 257 250 246 243 229 220 225 227 224 230 235 232 234 237 234 234 237 237 238 239 238 236 233 232 231 228 227 230 232 234 237 239 242 244 243 245 246 246 248 248 248 250 252 251 248 245 245
29 28 26 33 37 36 36 35 40 45 39 32 33 26 14 13 359 324 310 319 317 307 286 260 275 277 264 249 236 234 234 233 240 242 238 240 243 241 242 243 246 250 246 241 240 231 223 227 227 224 229 236 238 238 237 236 239 241 240 240 240 239 238 236 235 235 232 231 233 236 239 237 236 241 242 241 243 247 247 251 254 254 253 252 252 250 246 244
29 28 25 32 34 30 32 34 38 43 36 33 40 36 28 24 9 349 342 350 313 305 306 259 256 269 271 265 247 239 237 229 233 242 239 240 246 243 240 239 240 247 246 238 239 237 229 229 230 226 227 236 240 240 240 238 238 240 242 242 241 240 240 238 238 237 236 236 237 236 236 235 236 242 243 240 242 246 249 253 255 255 254 254 253 252 247 243
31 31 29 33 26 18 24 29 34 40 34 32 41 39 32 31 29 28 23 22 14 321 299 237 240 269 281 281 262 249 244 233 234 243 241 239 242 241 242 241 236 241 247 240 240 241 231 231 235 231 231 238 239 242 245 243 241 242 244 243 240 238 238 238 239 238 237 238 239 237 235 235 238 243 243 241 241 244 247 250 251 252 254 255 254 252 249 246
27 28 28 34 26 16 21 24 25 34 31 23 31 34 30 26 28 44 44 31 27 26 33 161 220 303 299 293 273 257 250 243 244 248 244 244 244 241 242 242 234 235 239 238 243 243 233 232 237 235 236 241 242 244 247 247 246 243 241 240 238 237 238 239 239 238 238 237 238 237 237 237 239 241 242 242 241 241 243 245 246 249 252 254 254 253 251 249